KAITUO 1B
1 40912U 15049P   19207.57259707  .00000596  00000-0  31086-4 0  9998
2 40912  97.4491 214.4334 0016337  44.9401  75.8119 15.19649515213064
TIANWANG 1C (TW-1C)
1 40926U 15051B   19207.19936646  .00006829  00000-0  98534-4 0  9994
2 40926  97.1331 253.3335 0006512 223.8623 178.7729 15.56285836215997
TIANWANG 1B (TW-1B)
1 40927U 15051C   19207.52931844  .00006493  00000-0  99427-4 0  9996
2 40927  97.1358 252.9581 0006445 234.5751 231.6292 15.54676161215897
TIANWANG 1A (TW-1A)
1 40928U 15051D   19207.56052927  .00001889  00000-0  47852-4 0  9996
2 40928  97.1430 238.0259 0009519 301.7216 210.1537 15.40930263215002
LAPAN A2
1 40931U 15052B   19205.28197977  .00000614  00000-0 -34879-5 0  9995
2 40931   6.0001 162.9056 0012574 301.4150  58.4748 14.76609804206535
LQSAT
1 40958U 15057A   19207.19485040 -.00000011  00000-0  58914-5 0  9999
2 40958  97.8966 275.3750 0019471 119.0903 241.2258 14.73084638204326
CHUBUSAT 2
1 41338U 16012B   19207.48509552  .00000213  00000-0  98485-5 0  9991
2 41338  31.0025 264.5895 0013714 117.5382 242.6648 15.00160982188599
CHUBUSAT 3
1 41339U 16012C   19207.51669448  .00000181  00000-0  73163-5 0  9997
2 41339  31.0110 262.4335 0013413 125.2612 234.9282 15.00335914188596
OUFTI-1
1 41458U 16025C   19207.19903181  .00001530  00000-0  81943-4 0  9995
2 41458  98.1020 295.9510 0165390 230.6852 127.9613 15.05859619178212
E-STAR-2
1 41459U 16025D   19207.29084088  .00000161  00000-0  12991-4 0  9999
2 41459  98.1016 295.6884 0166419 231.5689 127.0510 15.05497237178200
AAUSAT 4
1 41460U 16025E   19207.15326092  .00000419  00000-0  25505-4 0  9991
2 41460  98.0953 296.8764 0156596 224.4611 134.3966 15.07391756178311
NUSAT 1
1 41557U 16033B   19207.52157886  .00000779  00000-0  31862-4 0  9993
2 41557  97.4180 294.8028 0014457 157.9816 202.2047 15.27266280175867
BEESAT 4
1 41619U 16040W   19206.83006028 +.00000750 +00000-0 +34674-4 0  9997
2 41619 097.3651 268.3587 0009685 249.8959 110.1236 15.23184064159516
PRATHAM
1 41783U 16059A   19206.80546045 +.00000024 +00000-0 +14062-4 0  9997
2 41783 098.0648 265.5634 0032175 267.1769 092.5750 14.63000821150972
ALSAT 1N
1 41789U 16059G   19207.17249993  .00000057  00000-0  19887-4 0  9992
2 41789  98.0675 267.9975 0027051 254.8378 104.9832 14.64251474151139
NAYIF 1
1 42017U 17008BX  19206.75702638 +.00000818 +00000-0 +35027-4 0  9994
2 42017 097.4009 273.4666 0007415 050.1822 310.0067 15.25591589135572
MAX VALIER SAT
1 42778U 17036P   19207.13411847  .00000540  00000-0  26550-4 0  9994
2 42778  97.3518 263.9715 0014201  93.1395 267.1466 15.22056575115933
